[[{"header":{"parameterUnit":"m.s-1","parameterCategory":1,"la1":30.2991,"la2":30.254,"lo1":-89.0895,"lo2":-89.0444,"dy":0.0017,"dx":0.0017,"nx":28,"ny":28,"refTime":"2024-02-25T03:00:00:Z","depth":0,"parameterNumber":2,"parameterNumberName":"U-component_of_WINDS"},"data":[0,0,0,0,0,0,0,0,0,0,0,0,0,0,0,0,0,0,0,0,0,0,0,0,0,0,0,0,0,0,0,0,0,0,0,0,0,0,0,0,0,0,0,0,0,0,0,0,0,0,0,0,0,0,0,0,0,0,0.9969,0.9968,0,0.9905,0.9904,0.9903,0.9856,0.9856,0.9855,0.9855,0.979,0.9788,0.9787,0,0,0,0,0,0,0,0,0,0,0,0,0,1.0053,1.0052,0.9969,0.9968,0.9968,0.9905,0.9904,0.9903,0.9856,0.9856,0.9855,0.9855,0.979,0.9788,0.9787,0,0,0,0,0,0,0,0,0,0,0,0,0,1.0006,1.0051,0.9969,0.9937,0.9933,0.9905,0.9904,0.9903,0.9856,0.9856,0.9855,0.9854,0.9791,0.9789,0.9787,0.9786,0,0,0.978,0.9779,0,0,0,0,0,0,0,0,1.0008,1.0003,0.9942,0.9939,0.9935,0.9888,0.991,0.9864,0.9856,0.9885,0.9855,0.9854,0.9823,0.9818,0.9807,0.9783,0.978,0.978,0.9779,0.9778,0.9778,0,0,0,0,0,0,0,1.0012,1.0005,0.9944,0.9941,0.9937,0.9926,0.9918,0.9901,0.9858,0.9883,0.9879,0.9872,0.9821,0.9809,0.9805,0.9779,0.978,0.9778,0.9777,0.9776,0.9754,0.9754,0,0,0,0,0,0,1.002,1.0008,0.9946,0.9942,0.9971,0.9925,0.9916,0.9903,0.9858,0.9851,0.9873,0.987,0.9813,0.9808,0.9803,0.9801,0.9778,0.9776,0.9775,0.9753,0.9754,0.9755,0,0,0,0,0,0,1.0022,1.0015,0.9948,0.9974,0.9965,0.9924,0.991,0.9903,0.9891,0.9851,0.9843,0.9869,0.9813,0.9806,0.9791,0.9798,0.9775,0.9773,0.9752,0.9753,0.9754,0.9796,0,0,0,0,0,0,1.0025,1.0016,1.0015,0.9974,0.9963,0.9937,0.991,0.9902,0.9888,0.9884,0.9845,0.9838,0.9812,0.9794,0.9789,0.9795,0.9772,0.9752,0.9753,0.9754,0.9794,0.9799,0.9802,0,0,0,0,0,1.0028,1.0029,1.0015,1.0008,0.9961,0.9938,0.9931,0.99,0.9888,0.9888,0.9862,0.9839,0.9798,0.9793,0.9787,0.9792,0.9751,0.9753,0.9754,0.9792,0.9798,0.9802,0,0,0,0,0,0,1.0071,1.0023,1.0007,0.9995,0.9971,0.993,0.9927,0.9907,0.9886,0.9883,0.9845,0.9837,0.9827,0.9808,0.9803,0.979,0.9772,0.9772,0.9803,0.9808,0.9812,0.9817,0.977,0,0,0,0,0,1.0079,1.0064,1.0022,1.0016,1.0005,0.9968,0.9957,0.9935,0.9909,0.9898,0.9871,0.9847,0.9828,0.9817,0.9798,0.9791,0.9783,0.9792,0.9796,0.9799,0.98,0.9797,0.9801,0.9759,0.9759,0.9759,0,0,1.0096,1.0068,1.006,1.0024,1.0003,0.9988,0.996,0.9945,0.9935,0.9896,0.9881,0.986,0.9831,0.9821,0.9815,0.9804,0.981,0.9801,0.9804,0.9803,0.9799,0.9803,0.9807,0.976,0.976,0.976,0,0,1.0119,1.0095,1.0088,1.0068,1.0036,1.0012,1.0011,0.9973,0.9958,0.9942,0.9914,0.99,0.9869,0.985,0.9836,0.9853,0.9833,0.9848,0.987,0.9867,0.9871,0.9873,0.9881,0.9884,0.9849,0.9849,0.9849,0,1.0143,1.012,1.0087,1.0075,1.006,1.0025,1.0018,1.0,0.9964,0.9955,0.9944,0.9905,0.9882,0.9868,0.9873,0.9862,0.986,0.9853,0.9873,0.9875,0.9877,0.9884,0.9887,0.9851,0.9851,0.9851,0.9851,0,1.0153,1.0137,1.0135,1.0102,1.0087,1.0078,1.0044,1.0033,1.0013,0.9991,0.9976,0.9948,0.9924,0.9918,0.9898,0.9902,0.9897,0.988,0.986,0.9884,0.989,0.9893,0.9854,0.9854,0.9853,0.9852,0,0,1.02,1.015,1.015,1.0135,1.0098,1.0086,1.0076,1.0052,1.0044,1.002,1.0012,0.9987,0.9971,0.9956,0.9933,0.9931,0.9949,0.9914,0.9913,0.9923,0.9953,0.9967,0.9971,0.9935,0.9935,0.9936,0.9956,0,1.0219,1.0198,1.0169,1.0158,1.0144,1.0111,1.0102,1.008,1.0059,1.0045,1.0021,1.0005,0.9985,0.9976,0.9972,0.9948,0.9955,0.9946,0.9928,0.9927,0.9937,0.9973,0.9987,1.0008,0.9958,0.9959,0.9959,0,1.0237,1.0216,1.0204,1.0171,1.0164,1.0156,1.0133,1.0119,1.0093,1.0078,1.0062,1.0038,1.0026,1.0009,0.9993,0.9988,0.9979,0.9966,0.9966,0.9964,0.9945,0.9974,1.0014,1.0018,0.9962,0.9962,0.9961,0,1.0275,1.0244,1.0233,1.0221,1.0181,1.0177,1.016,1.0133,1.0121,1.0101,1.0093,1.0072,1.0061,1.0045,1.0017,1.0006,1.0005,0.9984,0.9993,0.9994,0.9995,0.9996,1.0036,0.9988,0.9988,0.9987,0.9987,0,1.0299,1.0293,1.025,1.0243,1.0237,1.0203,1.0198,1.0178,1.0155,1.0145,1.0115,1.0106,1.0069,1.0056,1.0034,1.0025,1.002,1.0009,1.0003,1.0012,1.0014,1.0006,1.0004,0.9988,0.9988,0.9988,0.9988,0,1.034,1.031,1.0297,1.0261,1.0251,1.0248,1.0217,1.0211,1.0188,1.0176,1.0171,1.0137,1.0121,1.0091,1.0066,1.0051,1.0048,1.0037,1.0057,1.0053,1.0064,1.0064,1.0102,1.0106,1.0055,1.0055,1.0055,0,1.0357,1.0353,1.0316,1.0307,1.0292,1.0278,1.0266,1.0234,1.0222,1.0194,1.0191,1.0172,1.0155,1.0131,1.0104,1.0085,1.0075,1.0089,1.0072,1.0082,1.0077,1.0078,1.0078,1.0094,1.0094,1.0095,1.0096,0,1.0392,1.0379,1.0362,1.0342,1.0329,1.0311,1.0291,1.0286,1.0249,1.0238,1.0222,1.0209,1.0184,1.0166,1.0144,1.0127,1.0106,1.0101,1.0103,1.0112,1.0124,1.012,1.0069,1.0101,1.01,1.01,1.0099,1.0099,1.0423,1.0418,1.0392,1.0376,1.0358,1.0341,1.0333,1.0311,1.0296,1.0274,1.0255,1.0241,1.0216,1.0184,1.0169,1.0158,1.0147,1.0149,1.0149,1.0151,1.0155,1.0126,1.0153,1.0153,1.0153,1.0153,1.0152,0,1.0458,1.044,1.0425,1.0399,1.0387,1.0368,1.0346,1.0337,1.0324,1.0303,1.0288,1.027,1.0253,1.0226,1.0207,1.0203,1.0193,1.02,1.02,1.0197,1.0164,1.0166,1.0208,1.0208,1.0208,1.0208,1.0208,1.0208,1.0474,1.0465,1.0449,1.0431,1.0413,1.0399,1.0388,1.0373,1.0356,1.0337,1.0323,1.0306,1.0283,1.0262,1.0247,1.0239,1.0234,1.0244,1.0234,1.0204,1.0199,1.0194,1.0195,1.0243,1.0243,1.0267,1.0268,1.0268]},{"header":{"parameterUnit":"m.s-1","parameterCategory":1,"la1":30.2991,"la2":30.254,"lo1":-89.0895,"lo2":-89.0444,"dy":0.0017,"dx":0.0017,"nx":28,"ny":28,"refTime":"2024-02-25T03:00:00:Z","depth":0,"parameterNumber":3,"parameterNumberName":"V-component_of_WINDS"},"data":[0,0,0,0,0,0,0,0,0,0,0,0,0,0,0,0,0,0,0,0,0,0,0,0,0,0,0,0,0,0,0,0,0,0,0,0,0,0,0,0,0,0,0,0,0,0,0,0,0,0,0,0,0,0,0,0,0,0,3.3789,3.3789,0,3.3836,3.3837,3.3837,3.3837,3.3837,3.3836,3.3836,3.3891,3.3893,3.3895,0,0,0,0,0,0,0,0,0,0,0,0,0,3.3707,3.3708,3.3789,3.3789,3.379,3.3836,3.3837,3.3837,3.3837,3.3837,3.3836,3.3835,3.389,3.3893,3.3895,0,0,0,0,0,0,0,0,0,0,0,0,0,3.3747,3.3709,3.3789,3.3796,3.3797,3.3836,3.3837,3.3837,3.3838,3.3837,3.3836,3.3835,3.3889,3.3892,3.3895,3.3933,0,0,3.3905,3.3906,0,0,0,0,0,0,0,0,3.3745,3.375,3.3794,3.3795,3.3796,3.383,3.3828,3.387,3.3838,3.3822,3.3836,3.3834,3.3872,3.3876,3.3887,3.3936,3.3938,3.3905,3.3907,3.3908,3.3909,0,0,0,0,0,0,0,3.3742,3.3748,3.3808,3.3795,3.3796,3.3799,3.3803,3.3836,3.3852,3.3824,3.3824,3.3829,3.3872,3.3884,3.3889,3.3939,3.3905,3.3908,3.391,3.3911,3.4024,3.4025,0,0,0,0,0,0,3.3737,3.3746,3.3806,3.3809,3.3768,3.3801,3.3806,3.382,3.3851,3.3855,3.383,3.3829,3.388,3.3885,3.3891,3.3939,3.3908,3.3911,3.3913,3.4023,3.4024,3.4025,0,0,0,0,0,0,3.3735,3.3742,3.3804,3.3778,3.3786,3.3803,3.3819,3.3822,3.3833,3.3856,3.386,3.3838,3.3879,3.3886,3.3923,3.394,3.3913,3.3915,3.4021,3.4023,3.4025,3.4034,0,0,0,0,0,0,3.3733,3.3742,3.3754,3.3778,3.3787,3.3833,3.382,3.3823,3.3838,3.3837,3.3865,3.3869,3.3879,3.3918,3.3926,3.3944,3.3918,3.402,3.4022,3.4024,3.4032,3.4036,3.4039,0,0,0,0,0,3.373,3.3756,3.3755,3.3762,3.3803,3.3834,3.384,3.3848,3.3839,3.3854,3.3868,3.3868,3.3937,3.3922,3.393,3.395,3.4019,3.4021,3.4024,3.4031,3.4035,3.4039,0,0,0,0,0,0,3.3736,3.3759,3.3758,3.3792,3.3811,3.3834,3.3852,3.3852,3.3876,3.3875,3.3887,3.3893,3.393,3.3944,3.3926,3.399,3.3977,3.3982,3.3979,3.3984,3.3987,3.3984,3.392,0,0,0,0,0,3.3741,3.3762,3.3782,3.381,3.382,3.3834,3.3848,3.3853,3.3874,3.3883,3.39,3.3923,3.395,3.3967,3.3993,3.4034,3.4042,3.4052,3.4055,3.4058,3.4062,3.4087,3.4093,3.4034,3.4034,3.4034,0,0,3.3752,3.3767,3.378,3.3812,3.3827,3.3852,3.3841,3.3867,3.3886,3.3888,3.3923,3.3937,3.3963,3.4002,3.402,3.4015,3.408,3.4061,3.4063,3.4066,3.4091,3.4096,3.4101,3.4035,3.4035,3.4035,0,0,3.3785,3.3798,3.3823,3.3839,3.3861,3.3871,3.3877,3.39,3.3909,3.3944,3.3946,3.3971,3.4016,3.4035,3.4051,3.4093,3.4095,3.4101,3.4119,3.4143,3.4148,3.4152,3.417,3.4175,3.4105,3.4105,3.4105,0,3.3797,3.3831,3.3837,3.3863,3.3878,3.3879,3.3907,3.3922,3.3953,3.3965,3.3957,3.4015,3.4033,3.4078,3.4088,3.41,3.411,3.4098,3.4146,3.4151,3.4155,3.4172,3.4178,3.4106,3.4105,3.4105,3.4105,0,3.3846,3.387,3.3888,3.3916,3.3933,3.396,3.3973,3.399,3.3994,3.4005,3.4042,3.4063,3.4094,3.4105,3.411,3.4152,3.4148,3.4143,3.4131,3.4161,3.4177,3.4183,3.4107,3.4106,3.4106,3.4106,0,0,3.3884,3.3915,3.3922,3.3935,3.396,3.3981,3.4009,3.4037,3.4053,3.4074,3.41,3.4139,3.4135,3.4153,3.416,3.4182,3.4216,3.4175,3.4176,3.4184,3.4267,3.4271,3.4278,3.4217,3.4218,3.4219,3.4265,0,3.3921,3.3968,3.3975,3.4018,3.4042,3.4044,3.4069,3.4089,3.41,3.4125,3.4139,3.4167,3.4159,3.417,3.4191,3.4207,3.4234,3.4204,3.4245,3.4246,3.4239,3.4286,3.429,3.4333,3.4271,3.4272,3.4273,0,3.3971,3.3992,3.4037,3.406,3.4071,3.4092,3.412,3.4142,3.4166,3.4173,3.4194,3.4198,3.4231,3.4216,3.4263,3.4243,3.426,3.4271,3.4273,3.4279,3.4262,3.4295,3.4346,3.4353,3.4283,3.4282,3.4281,0,3.3997,3.4037,3.4069,3.408,3.4108,3.4124,3.4137,3.4159,3.4176,3.4201,3.4213,3.4243,3.4259,3.4283,3.4297,3.4285,3.4344,3.433,3.4354,3.4354,3.4367,3.4367,3.4424,3.4375,3.4375,3.4375,3.4375,0,3.4039,3.4067,3.4081,3.4101,3.4134,3.4142,3.4175,3.4188,3.4208,3.4233,3.4237,3.4261,3.4277,3.4304,3.4316,3.4354,3.4361,3.4371,3.4374,3.4371,3.437,3.4384,3.4382,3.4377,3.4377,3.4376,3.4376,0,3.4074,3.4084,3.412,3.4143,3.4149,3.4172,3.4194,3.4215,3.4227,3.4258,3.4267,3.4286,3.4318,3.4334,3.4375,3.4383,3.4427,3.4428,3.4418,3.442,3.4444,3.4442,3.4513,3.4524,3.4466,3.4467,3.4467,0,3.41,3.4121,3.4146,3.4162,3.4175,3.42,3.4218,3.4228,3.4246,3.4276,3.4294,3.4326,3.4352,3.4405,3.4425,3.4457,3.4459,3.4482,3.4464,3.4462,3.4462,3.4461,3.4465,3.4486,3.4486,3.4487,3.4487,0,3.4147,3.4151,3.4175,3.42,3.422,3.4242,3.4263,3.4276,3.4291,3.4312,3.4343,3.4364,3.4405,3.4438,3.4471,3.4488,3.4491,3.4492,3.45,3.4498,3.4493,3.4498,3.4429,3.4491,3.449,3.449,3.449,3.449,3.418,3.42,3.4221,3.4247,3.4264,3.4284,3.4305,3.4319,3.4345,3.4377,3.4383,3.4418,3.4444,3.4488,3.4506,3.4536,3.4531,3.4542,3.4545,3.4548,3.455,3.4487,3.4542,3.4542,3.4542,3.4542,3.4542,0,3.4229,3.4242,3.4266,3.4295,3.4317,3.4315,3.4339,3.4358,3.4387,3.441,3.4435,3.4474,3.4506,3.4528,3.4562,3.4581,3.4584,3.459,3.459,3.4594,3.4551,3.4542,3.4588,3.4588,3.4588,3.4588,3.4588,3.4588,3.4257,3.4291,3.4298,3.4341,3.4355,3.4387,3.4401,3.4421,3.4439,3.448,3.4506,3.452,3.4543,3.4579,3.461,3.4616,3.4629,3.4636,3.4642,3.4602,3.4597,3.4592,3.4584,3.4638,3.4638,3.4683,3.4684,3.4684]}]]